www.pogodaiklimat.ru

Погода и климат >> Архив погоды >> Россия >> Краснодарский край >> Тихорецк


ПОГОДА в Тихорецке

  • Прогноз погоды в Тихорецке
  • Монитор погоды в Тихорецке

АРХИВ ПОГОДЫ в Тихорецке

Время (UTC), дата Ветер
(напр.,м/с)
 
Видим.   Явления Облачность Т
(С)
Тd
(С)
f
(%)
Тe
(С)
Тes
(С)
Комфортность P
(гПа)
Po
(гПа)
Тmin
(С)
Tmax
(С)
R
(мм)
R24
(мм)
S
(см)
15 15.08 В 3
{10}
10 км ясно +35.2 +3.3 14 +32 +33 жарко 1005.2 996.6 +37.5
18 15.08 В 3 10 км ясно +30.1 +1.5 16 +28 +28 жарко 1006.3 997.5
21 15.08 В 2 10 км ясно +26.1 +3.1 23 +25 +25 комфорт 1006.6 997.7
00 16.08 В 2 10 км ясно +23.2 +6.0 33 +24 +24 комфорт 1007.3 998.3
03 16.08 В 3 10 км ясно +21.2 +7.4 41 +22 +22 комфорт 1006.7 997.7 +20.2
06 16.08 С 2 10 км 10/6 1000 м
[Sc Ac As]
+21.4 +10.5 50 +23 +24 комфорт 1006.8 997.7
09 16.08 СВ 3 10 км {ливн. осадки} 10/0
[Ac cast Cc]
+28.1 +13.3 40 +30 +36 жарко 1006.0 997.2
12 16.08 С 2 10 км {ливн. осадки} 10/10 600 м
[Cb cap]
+28.6 +15.0 44 +31 +31 жарко 1005.9 997.1
15 16.08 СВ 1 10 км в посл. час ливневой дождь 10/10 600 м
[Cb cap]
+27.2 +15.2 48 +30 +30 душно 1005.1 996.3 +30.4 0.0
18 16.08 З 1 10 км слаб. ливневой дождь 10/10 600 м
[Cb cap]
+25.6 +15.9 55 +29 +29 душно 1007.4 998.5
21 16.08 З 1 10 км {ливн. осадки} 10/0
[Ac As]
+23.1 +17.3 70 +28 +28 душно 1006.2 997.3
00 17.08 ЮЗ 1 10 км в посл. час ливневой дождь 10/8 600 м
[Cb cap Ac As]
+21.4 +18.2 82 +26 +26 душно 1007.5 998.5
03 17.08 штиль 0 10 км в посл. час ливневой дождь 10/10 600 м
[Cb cap]
+19.1 +18.1 94 +21 +21 комфорт 1008.1 999.0 +18.9 6
06 17.08 Ю 1 н/о н/о +20.9 +18.8 88 +26 +26 душно 1008.8 999.8 +21.6
09 17.08 ЮЗ 2 10 км 8/5 1000 м
[Sc diur, vesp Ac cast Ci fib]
+26.8 +18.6 61 +32 +37 очень
душно
1009.0 1000.2
12 17.08 З 1 10 км 10/8 1000 м
[Cb cap Ac cast Ci fib]
+28.2 +17.1 51 +32 +33 душно 1008.9 1000.1
15 17.08 ЮЗ 1 10 км 3/3 1000 м
[Cu hum]
+28.7 +15.7 45 +32 +32 душно 1008.6 999.8 +29.6
18 17.08 З 1 10 км 8/8 1000 м
[Sc diur, vesp]
+24.2 +18.0 68 +28 +28 душно 1009.8 1000.9
21 17.08 СЗ 1 10 км ясно +20.9 +17.5 81 +26 +26 душно 1010.0 1001.0
00 18.08 С 1 10 км ясно +19.4 +17.3 88 +23 +23 комфорт 1009.4 1000.3
03 18.08 штиль 0 10 км 10/10 1000 м
[Cb cap]
+19.5 +17.4 88 +22 +22 комфорт 1009.6 1000.5 +19.1
06 18.08 С 1 1000 м 10/10 1000 м
[Cb cap]
+20.9 +17.9 83 +26 +26 душно 1009.8 1000.8
09 18.08 штиль 0 10 км 10/8 1000 м
[Cb calv Ac As]
+24.4 +18.7 71 +29 +30 душно 1010.1 1001.2
12 18.08 СЗ 1 10 км 10/8 1000 м
[Cb calv Ac As]
+26.2 +19.1 65 +31 +32 очень
душно
1009.8 1001.0
15 18.08 СЗ 1 10 км {ливн. осадки} 8/3 1000 м
[Sc diur, vesp Ac trans]
+26.6 +19.3 64 +32 +32 очень
душно
1010.5 1001.6 +27.5
18 18.08 З 1 10 км {ливн. осадки} 6/0
[Ac trans]
+23.0 +19.6 81 +30 +30 очень
душно
1011.8 1002.8
21 18.08 З 2 10 км в посл. час ливневой дождь 10/8 600 м
[Cb calv Ac trans]
+21.3 +19.5 89 +26 +26 душно 1012.7 1003.7
00 19.08 С 2 10 км {ливн. осадки} 10/4 1000 м
[Sc diur, vesp Ac trans]
+19.6 +17.1 85 +22 +22 комфорт 1013.4 1004.3
03 19.08 З 1 10 км 10/5 1000 м
[Sc diur, vesp Ac trans]
+19.3 +17.4 89 +22 +22 комфорт 1014.4 1005.2 +19.2 0.0
06 19.08 З 1 4000 м гроза, ливневой дождь 10/10 600 м
[Cb cap]
+19.3 +18.2 93 +22 +22 комфорт 1016.0 1006.9 +19.2
09 19.08 С 1 10 км {гроза, ливн. осадки} 10/6 1000 м
[Cb cap Cs]
+22.4 +21.4 94 +29 +35 очень
душно
1015.5 1006.5
12 19.08 С 2 10 км {гроза, ливн. осадки} 4/4
[Cu hum]
+28.5 +20.4 62 +35 +41 очень
душно
1015.1 1006.3
15 19.08 С 2 10 км ясно +28.5 +19.8 59 +34 +35 очень
душно
1015.4 1006.5 +29.4 17
18 19.08 С 2 10 км ясно +25.0 +19.6 72 +30 +30 душно 1016.2 1007.2
21 19.08 С 3 10 км ясно +23.2 +18.7 76 +29 +29 душно 1016.2 1007.2
00 20.08 СВ 2 10 км ясно +21.6 +18.4 82 +26 +26 душно 1016.2 1007.1
03 20.08 С 1 10 км ясно +20.0 +18.5 91 +24 +24 комфорт 1017.2 1008.1 +19.5
06 20.08 СВ 2 10 км 3/0
[Ac cast]
+26.7 +17.8 58 +31 +37 душно 1017.2 1008.3
09 20.08 С 3 10 км ясно +32.4 +16.4 38 +35 +48 душно 1016.4 1007.6
12 20.08 С 3 10 км 4/0
[Ac cast]
+34.3 +16.0 34 +37 +43 очень
душно
1015.2 1006.5
15 20.08 СЗ 1
{10}
10 км 10/0
[Cc]
+33.8 +16.0 35 +36 +37 очень
душно
1014.7 1006.0 +34.9
18 20.08 С 2 10 км 6/0
[Ci sp]
+27.8 +16.5 50 +31 +31 душно 1015.4 1006.5
21 20.08 С 2 10 км 10/0
[Ci fib]
+25.1 +17.0 61 +29 +29 душно 1015.1 1006.1
00 21.08 С 3 10 км 10/0
[Cs]
+24.1 +15.9 60 +27 +27 жарко 1014.0 1005.1
03 21.08 С 1 10 км 10/0
[Ac cast Ci fib]
+22.5 +14.8 62 +26 +26 жарко 1014.5 1005.4 +22.5
06 21.08 СВ 3 10 км 4/0
[Cs]
+27.1 +12.3 40 +29 +34 жарко 1014.6 1005.7 +22.1
09 21.08 СВ 4 10 км 8/0
[Cc]
+33.6 +9.2 22 +32 +41 жарко 1013.1 1004.4
12 21.08 СВ 3
{10}
10 км 10/0
[Cs]
+34.8 +5.4 16 +32 +39 жарко 1011.9 1003.3
15 21.08 СВ 3 10 км 10/0
[Cc]
+34.6 +3.1 14 +32 +32 жарко 1011.3 1002.6 +36.4
18 21.08 С 2 10 км ясно +29.5 +4.3 20 +28 +28 жарко 1011.2 1002.4
21 21.08 СВ 2 10 км ясно +26.0 +4.8 26 +25 +25 комфорт 1011.8 1002.8
00 22.08 СВ 3 10 км гроза без осадков 10/10
[Cb cap]
+24.7 +5.8 30 +25 +25 комфорт 1011.6 1002.6
03 22.08 СВ 4 10 км {гроза} 6/0
[Ac cast]
+23.1 +5.8 33 +24 +24 комфорт 1011.9 1002.9 +23.1
06 22.08 СВ 3 10 км {гроза} 3/0
[Ci fib]
+28.7 +7.2 26 +28 +34 жарко 1012.6 1003.8
09 22.08 В 4
{11}
10 км ясно +35.6 +3.5 13 +32 +42 жарко 1011.9 1003.2
12 22.08 СВ 4
{12}
10 км 4/0
[Ac trans Ci fib]
+37.1 +2.6 12 +34 +39 очень
жарко
1011.2 1002.6

 

Местоположение метеостанции Тихорецк (Краснодарский край, Россия): широта 45.85 долгота 40.08 высота над уровнем моря 78 м.

В архиве по умолчанию представлена погода в Тихорецке за последнюю неделю. Архивные данные за месяц целиком и за предыдущие месяцы, начиная с января 2011 года, Вы можете получить, выбрав интересующий диапазон дат из раскрывающегося списка и нажав кнопку "Ввод!".


*Определитесь, кто Вы:
робот инопланетянин человек

Внимание! Время в таблицах - всемирное. Для получения местного времени необходимо прибавить поправку, которая равна 3 ч.

Смотрите также архив погоды в соседних городах и на ближайших метеорологических станциях:

Погода в Сосыке (Краснодарский край, Россия) (37 км)
Погода в Кропоткине (Краснодарский край, Россия) (60 км)
Погода в Кореновске (Краснодарский край, Россия) (63 км)
Погода в Белой Глине (Краснодарский край, Россия) (67 км)
Погода в Усть-Лабинске (Краснодарский край, Россия) (74 км)
Погода в Кущевской (Краснодарский край, Россия) (84 км)
Погода в Каневской (Краснодарский край, Россия) (89 км)
Погода в Тимашевске (Краснодарский край, Россия) (93 км)
Погода в Новоалександровске (Ставропольский край, Россия) (95 км)
Погода в Красногвардейском (Ставропольский край, Россия) (109 км)

Пояснения к столбцам:

Ветер - указаны скорость ветра в м/с - средняя за 10 мин, порывы в срок и между сроками (в фигурных скобках) и направление, откуда дует ветер: С - северный, СВ - северо-восточный, В - восточный, ЮВ - юго-восточный, Ю - южный, ЮЗ - юго-западный, З - западный, СЗ - северо-западный.
Видимость - горизонтальная дальность видимости в метрах или километрах. При видимости от 1 до 10 км при отсутствии осадков обычно наблюдается дымка, при ухудшении видимости до 1 км и менее - туман. В сухую погоду видимость может ухудшаться дымом, пылью или мглою.
Явления - указаны атмосферные явления, наблюдавшиеся в срок или в последний час перед сроком; фигурными скобками обозначены явления, наблюдавшиеся между сроками (за 1-3 часа до срока); квадратными скобками обозначены град или гололедные отложения с указанием их диаметра в мм.
Облачность - указаны через наклонную черту общая и нижняя облачность в баллах и высота нижней границы облаков в метрах; квадратными скобками обозначены формы облаков: Ci - перистые, Cs - перисто-слоистые, Cc - перисто-кучевые, Ac - высококучевые, As - высокослоистые, Sc - слоисто-кучевые, Ns - слоисто-дождевые, Cu - кучевые, Cb - кучево-дождевые. Подробнее классификацию облаков см. в Атласе облаков (PDF).
T - Температура воздуха - температура, измеренная на высоте 2 м над землей.
Td - Температура точки росы - температура, при понижении до которой содержащийся в воздухе водяной пар достигнет насыщения.
f - Относительная влажность воздуха - влажноcть воздуха, измеренная на высоте 2 м над землей.
Te - Эффективная температура - температура, которую ощущает одетый по сезону человек в тени. Характеристика душности погоды. При расчете учитывается влияние влажности воздуха и скорости ветра на теплоощущения человека.
Tes - Эффективная температура на солнце - температура, которую ощущает человек, с поправкой на солнечный нагрев. Характеристика знойности погоды. Зависит от высоты солнца над горизонтом, облачности и скорости ветра. Ночью, в пасмурную погоду, а также при ветре 12 м/с и более поправка равна нулю.
P - Атмосферное давление - приведенное к уровню моря атмосферное давление.
Po - Атмосферное давление - измеренное на уровне метеостанции атмосферное давление.
Tmin - Минимальная температура - минимум температуры воздуха на высоте 2 м над землей.
Tmax - Максимальная температура - максимум температуры воздуха на высоте 2 м над землей.
R - Количество осадков - Количество выпавших осадков за период времени, мм. При наведении курсора мыши на число - период времени, за который выпало указанное количество осадков.
R24 - Количество осадков - Количество выпавших осадков за 24 часа, мм.
S - Снежный покров - Высота снежного покрова, см. При наведении курсора мыши на число - состояние снежного покрова и степень покрытия местности в баллах.